Location: Unspecified
(0.0000°N, 0.0000°E)
Time: 04:42:58
(UTC+00:00)

deb NOAA 5 - Pass Details

Date: 14 February 2026
Orbit: 749 x 1047 km, 102.9° (Epoch: 11 March)

Event Time Altitude Azimuth Distance (km) Brightness Sun altitude
Rises 19:17:19 0° 342° (NNW) 3,698 ? -15.4°
Reaches altitude 10° 19:21:12 10° 318° (NW) 2,693 ? -16.3°
Maximum altitude 19:24:03 14° 290° (WNW) 2,379 ? -17.0°
Drops below altitude 10° 19:26:51 10° 260° (W) 2,599 ? -17.7°
Sets 19:30:30 0° 235° (SW) 3,473 ? -18.6°
